Dewpoint
51 54 55 55 54 53 54 56 57 59 61 59 55 53 54 55 56 58 61 61 60 59 58 53 50 47 46 46 47 45 45 42 44 41 38 38 38 39 35 35 34 34 34
50 53 55 55 56 54 55 56 57 59 59 57 54 52 53 55 55 58 60 60 59 58 56 52 48 47 46 48 47 46 43 43 43 39 36 36 35 36 36 35 33 37 34
47 51 53 55 56 55 56 55 56 58 59 58 55 53 54 56 56 57 60 59 57 55 53 51 48 48 47 46 47 46 45 42 41 39 34 35 33 31 32 34 33 35 35
46 49 52 54 56 56 56 56 56 57 58 59 56 55 51 50 54 57 59 58 56 54 52 49 48 50 46 46 47 45 45 42 38 37 35 36 33 28 26 29 32 36 35
46 48 51 53 55 56 57 58 56 57 58 59 58 56 54 50 54 58 58 57 55 52 48 48 49 49 46 48 47 46 44 38 36 38 35 35 33 33 29 24 23 28 30
48 48 48 53 54 56 58 59 58 57 58 59 60 59 58 56 57 57 57 56 55 52 50 46 48 48 47 47 46 45 41 37 40 40 36 32 28 26 26 26 27 27 28
48 49 48 50 53 56 58 58 58 57 58 60 60 60 60 59 57 56 56 55 53 51 50 48 48 47 47 46 43 40 40 40 41 39 35 37 31 29 29 29 27 26 25
46 48 50 51 52 55 57 59 58 57 57 59 59 60 60 59 57 57 57 56 53 50 51 49 48 47 45 42 42 42 42 41 40 39 40 35 32 32 31 28 28 29 26
41 46 48 50 53 55 57 58 58 57 57 59 60 60 59 58 57 57 57 55 52 52 51 49 48 44 42 43 43 44 42 40 41 41 39 35 33 34 32 31 30 29 28
39 42 45 49 51 53 56 58 59 57 58 58 59 59 58 58 58 57 56 54 53 54 49 47 42 43 44 45 43 42 40 38 39 37 37 35 33 34 32 31 31 30 27
41 42 44 46 49 52 54 56 57 56 56 57 58 58 58 58 58 57 55 53 52 49 47 43 43 44 45 42 41 39 39 38 37 36 35 35 35 33 31 32 30 29 27
42 43 44 46 48 51 53 54 55 55 55 57 57 57 58 57 57 56 53 51 48 45 44 44 45 44 42 40 40 39 39 38 36 35 35 34 30 34 34 31 31 29 28
41 45 46 47 49 51 53 54 56 56 56 57 57 57 57 56 53 50 47 45 45 45 45 46 44 41 40 39 40 41 39 36 35 34 34 34 34 33 32 31 29 28 24
32 43 47 49 52 54 55 56 57 57 56 55 54 52 51 49 47 46 46 45 46 45 45 42 41 41 41 41 41 38 37 36 34 35 35 34 33 33 32 30 30 27 26
39 40 47 50 52 55 56 55 54 52 52 50 50 49 48 47 46 46 45 45 45 42 41 41 41 42 41 40 39 37 38 36 34 35 34 35 35 35 34 28 28 28 26
44 45 47 50 52 53 52 52 52 52 50 49 46 45 45 45 44 44 44 44 43 41 40 40 40 40 39 38 37 37 39 36 34 33 33 32 35 35 35 33 32 30 27
44 45 48 49 50 50 50 50 49 49 48 46 44 43 43 43 43 41 39 37 38 38 39 40 40 41 41 38 38 37 34 34 34 33 32 29 26 32 32 32 32 32 32
42 44 45 46 46 46 46 46 44 44 43 41 41 40 40 38 38 39 40 40 41 40 41 42 41 40 36 35 34 34 32 32 31 31 31 31 30 30 31 31 29 29 28
40 41 42 43 44 43 43 41 40 38 37 38 39 39 40 39 39 40 41 42 42 41 39 36 34 34 33 34 34 32 32 30 31 30 30 30 30 30 34 31 31 28 29
38 39 40 41 41 41 40 39 38 39 39 39 39 39 40 40 39 38 37 37 35 32 31 30 30 31 31 32 34 32 33 32 32 32 30 31 31 31 32 34 32 32 28
36 38 38 38 38 38 39 38 38 38 39 39 37 37 35 34 34 32 31 31 30 30 32 32 33 33 33 33 33 33 32 32 33 32 32 32 32 32 32 32 33 34 31
35 35 36 37 37 37 38 37 36 35 35 33 30 29 29 26 26 29 30 29 30 31 30 37 29 29 28 28 28 30 30 30 31 28 30 32 33 34 33 32 31 31 32
33 35 35 36 35 34 33 31 31 30 30 29 29 28 27 26 25 25 25 23 21 22 23 22 25 24 26 25 27 27 26 26 29 29 30 30 31 32 33 33 31 31 34
32 32 32 31 30 30 29 29 28 28 28 27 26 24 20 19 17 14 14 16 21 23 21 22 23 23 22 24 23 23 24 24 26 27 30 29 28 29 31 32 34 33 34
31 31 31 30 28 27 26 26 26 25 23 21 18 17 18 16 14 14 17 19 22 23 22 23 22 25 24 22 21 22 23 26 25 27 30 29 28 27 28 30 32 35 34
30 30 29 27 24 22 21 20 19 18 17 14 15 19 19 19 15 13 14 21 20 19 22 20 21 22 19 19 19 20 20 21 22 28 29 31 32 30 27 29 31 33 31
Lifted_Index
-4 -3 -3 -3 -2 -1 -1 -2 -2 -3 -3 -3 -2 -1 -0 -1 -1 -2 -2 -1 -1 -0 -0 0 1 1 2 2 3 6 7 7 7 7 8 9 10 10 11 11 11 11 11
-3 -3 -3 -3 -2 -2 -2 -2 -3 -3 -3 -3 -2 -1 -0 -1 -1 -1 -1 -1 -1 -0 -0 0 1 1 2 2 4 6 7 7 7 7 7 8 9 10 10 10 11 11 10
-3 -4 -4 -3 -3 -3 -3 -3 -3 -3 -3 -3 -2 -1 -0 -1 -1 -1 -1 -0 -0 -0 -0 0 1 2 2 3 5 7 7 7 6 6 6 6 7 8 9 10 10 10 10
-3 -4 -4 -4 -4 -3 -3 -3 -3 -3 -3 -3 -2 -1 -1 -0 -1 -1 -1 -0 -0 -0 0 1 2 2 3 4 6 7 7 7 6 6 6 6 7 7 8 9 10 10 10
-3 -3 -4 -4 -4 -4 -4 -3 -3 -3 -3 -3 -3 -2 -1 -1 -1 -1 -1 -0 -0 -0 1 1 2 3 4 5 7 7 7 7 6 6 6 7 8 8 8 9 10 11 11
-3 -3 -3 -4 -4 -4 -4 -4 -3 -3 -3 -3 -3 -3 -2 -1 -1 -0 -0 -0 -0 -0 0 2 2 3 5 6 7 8 7 7 6 6 7 8 9 10 10 10 10 11 11
-4 -3 -4 -4 -4 -4 -4 -4 -4 -4 -3 -3 -3 -3 -3 -2 -1 -0 0 -0 -0 -1 0 1 3 4 5 6 7 8 7 7 6 6 8 9 11 11 11 11 11 11 11
-3 -4 -4 -4 -5 -5 -5 -4 -4 -4 -4 -3 -3 -3 -3 -2 -1 -0 0 -0 -1 -0 0 1 3 4 5 7 7 8 7 7 7 7 9 11 12 12 11 11 11 11 11
-2 -3 -4 -4 -5 -5 -5 -5 -4 -4 -4 -4 -3 -3 -2 -2 -1 -0 -0 -0 -1 -0 0 1 3 4 5 6 7 8 7 7 8 9 11 11 11 11 11 11 11 11 11
-2 -2 -3 -4 -4 -5 -5 -5 -4 -4 -4 -4 -3 -3 -2 -2 -1 -1 -0 -0 -0 -0 0 1 2 4 5 6 8 8 8 8 9 10 11 11 11 11 11 11 11 11 10
-1 -2 -2 -2 -3 -4 -4 -4 -4 -4 -4 -4 -3 -2 -2 -2 -2 -1 -1 -1 -0 -0 0 2 3 4 5 7 8 8 8 9 9 11 11 11 11 11 11 11 11 10 10
-2 -2 -2 -2 -3 -3 -4 -4 -4 -4 -4 -3 -3 -2 -2 -2 -1 -1 -1 -1 -0 0 1 3 4 5 7 8 9 9 9 9 10 11 11 11 11 11 11 10 10 10 10
-1 -2 -2 -2 -3 -3 -4 -4 -4 -4 -3 -3 -3 -2 -2 -2 -1 -1 -1 -0 0 1 3 4 5 7 8 9 9 9 9 10 10 11 11 11 11 11 10 10 10 10 10
-0 -1 -2 -3 -3 -3 -4 -3 -3 -3 -3 -3 -3 -3 -2 -2 -1 -1 -0 1 2 3 4 5 7 8 9 9 9 9 9 10 10 10 10 11 11 10 10 9 9 9 9
1 -0 -2 -3 -3 -3 -3 -3 -3 -3 -3 -3 -3 -2 -1 -1 0 1 1 2 3 5 6 7 8 8 9 9 9 9 10 10 10 10 10 10 10 10 10 9 9 9 8
1 0 -1 -2 -2 -3 -3 -3 -3 -2 -2 -2 -1 -0 1 1 2 3 3 4 5 7 8 8 9 9 9 9 9 10 11 11 10 10 10 10 10 10 10 9 9 8 8
2 1 1 -0 -1 -1 -1 -1 -1 -1 -0 0 1 2 3 3 4 4 5 6 7 8 9 9 9 9 9 10 11 11 12 12 11 10 10 10 9 9 9 9 8 8 7
3 3 2 2 1 1 1 1 1 1 2 2 3 4 4 5 6 6 7 8 9 10 10 10 10 10 11 12 12 13 13 12 12 11 10 9 9 9 8 8 7 6 6
4 4 4 3 3 3 2 2 3 3 4 4 5 5 6 7 8 8 9 10 11 11 12 12 12 12 12 13 14 14 13 13 12 11 10 10 9 8 8 7 6 5 5
4 4 4 4 4 4 3 3 4 4 5 6 7 7 8 9 10 10 11 12 13 13 13 14 14 13 13 13 14 14 14 13 12 11 10 10 9 8 7 6 5 5 5
4 4 4 4 4 4 4 5 5 6 7 8 8 9 10 11 12 13 14 14 15 15 14 14 14 14 14 14 15 15 14 14 13 12 11 10 9 8 7 6 5 5 4
5 5 5 5 5 5 5 6 6 7 8 9 10 11 12 13 15 15 16 16 16 15 15 15 15 15 15 16 16 16 15 15 14 13 12 11 9 8 7 6 5 5 4
5 5 5 5 5 6 7 7 8 9 10 11 12 13 15 16 17 17 17 17 16 16 16 16 16 16 17 17 18 18 17 16 15 14 13 11 10 9 8 7 6 5 4
5 5 5 5 6 7 8 9 10 11 12 13 15 16 17 17 17 18 18 17 17 17 17 17 17 17 18 19 19 19 18 18 16 14 12 11 10 9 8 7 6 5 5
5 6 6 6 7 8 9 11 12 13 15 16 17 17 18 17 18 18 18 18 18 18 18 18 18 19 19 20 20 20 19 18 16 14 12 10 9 8 7 6 6 5 5
5 6 6 7 8 9 10 12 14 16 17 17 17 17 17 17 18 18 18 19 19 19 19 19 20 20 20 20 20 20 19 17 16 13 12 10 9 8 7 6 5 5 5